Date String (YYYY-MM-DD hh:mm:ss) UTC,Instrument flags,Ambient pressure (hPa),Sample flow (lpm),Bypass flow (lpm),Sample temperature (°C),Ambient temperature (°C),ASC tube jacket temperature (°C),LED temperature (°C),Box temperature (°C),Sample RH (%),Span deviation,Mass concentration (μg/m³),Mass concentration (μg/m³),Mass concentration (μg/m³)
DateTimeUTC,F1_M11,P_M11,Q1_M11,Q2_M11,T1_M11,T2_M11,T3_M11,T4_M11,T5_M11,U1_M11,ZSPAN_M11,X0_M11,X2_M11,X1_M11
2022-03-10 17:00:00,,0823.3,4.99,0.00,21.9,21.0,00.0,30.9,23.6,05.3,0000.0,0007.76,0005.24,0004.98
2022-03-10 17:01:00,,0823.2,4.99,0.00,21.9,21.0,00.0,30.9,23.6,05.4,0000.0,0007.68,0005.18,0004.94
2022-03-10 17:02:00,,0823.3,5.02,0.00,21.9,21.0,00.0,30.9,23.5,05.2,0000.0,0007.57,0005.16,0004.94
2022-03-10 17:03:00,,0823.3,4.99,0.00,21.8,21.0,00.0,30.9,23.5,05.3,0000.0,0007.56,0005.15,0004.94
2022-03-10 17:04:00,,0823.3,4.99,0.00,21.8,20.9,00.0,30.9,23.4,05.3,0000.0,0007.57,0005.16,0004.93
2022-03-10 17:05:00,,0823.4,5.01,0.00,21.8,20.9,00.0,30.9,23.4,05.3,0000.0,0007.26,0005.15,0004.93
2022-03-10 17:06:00,,0823.3,4.98,0.00,21.8,21.6,00.0,30.9,23.5,05.5,0000.0,0007.33,0005.18,0004.94
2022-03-10 17:07:00,,0823.3,5.02,0.00,22.0,22.9,00.0,30.9,23.9,05.3,0000.0,0007.41,0005.21,0004.97
2022-03-10 17:08:00,,0823.3,5.00,0.00,22.1,23.1,00.0,31.0,24.1,05.3,0000.0,0007.47,0005.24,0004.99
2022-03-10 17:09:00,,0823.4,4.99,0.00,22.1,22.7,00.0,31.0,24.0,05.2,0000.0,0007.47,0005.26,0005.02
2022-03-10 17:10:00,,0823.4,5.01,0.00,22.1,22.2,00.0,31.0,23.9,05.2,0000.0,0007.52,0005.28,0005.05
2022-03-10 17:11:00,,0823.4,4.99,0.00,22.1,22.0,00.0,31.0,23.9,05.2,0000.0,0007.67,0005.35,0005.09
2022-03-10 17:12:00,,0823.4,5.00,0.00,22.1,21.8,00.0,31.0,23.9,05.2,0000.0,0007.85,0005.43,0005.13
2022-03-10 17:13:00,,0823.4,5.01,0.00,22.1,21.7,00.0,31.0,23.8,05.3,0000.0,0007.94,0005.45,0005.14
2022-03-10 17:14:00,,0823.3,5.00,0.00,22.1,21.6,00.0,31.0,23.8,05.4,0000.0,0007.92,0005.47,0005.15
2022-03-10 17:15:00,,0823.3,5.00,0.00,22.1,21.5,00.0,31.0,23.8,05.3,0000.0,0007.90,0005.48,0005.17
2022-03-10 17:16:00,,0823.3,4.99,0.00,22.0,21.4,00.0,31.0,23.7,05.2,0000.0,0007.97,0005.50,0005.19
2022-03-10 17:17:00,,0823.4,5.02,0.00,22.0,21.2,00.0,31.0,23.6,05.2,0000.0,0008.04,0005.53,0005.22
2022-03-10 17:18:00,,0823.3,4.99,0.00,22.0,21.2,00.0,31.0,23.6,05.3,0000.0,0008.05,0005.56,0005.26
2022-03-10 17:19:00,,0823.4,5.00,0.00,22.0,21.2,00.0,31.0,23.6,05.2,0000.0,0008.10,0005.62,0005.31
2022-03-10 17:20:00,,0823.3,5.00,0.00,21.9,21.1,00.0,31.0,23.6,05.1,0000.0,0008.16,0005.68,0005.35
2022-03-10 17:21:00,,0823.2,5.01,0.00,21.9,21.1,00.0,30.9,23.6,05.2,0000.0,0008.17,0005.72,0005.39
2022-03-10 17:22:00,,0823.1,5.00,0.00,21.9,21.1,00.0,30.9,23.6,05.2,0000.0,0008.16,0005.75,0005.43
2022-03-10 17:23:00,,0823.1,4.99,0.00,21.9,21.1,00.0,30.9,23.5,05.1,0000.0,0008.07,0005.76,0005.45
2022-03-10 17:24:00,,0823.1,5.00,0.00,21.8,21.0,00.0,30.9,23.4,05.1,0000.0,0008.05,0005.80,0005.49
2022-03-10 17:25:00,,0823.1,5.00,0.00,21.8,20.9,00.0,30.9,23.3,05.1,0000.0,0008.12,0005.83,0005.53
2022-03-10 17:26:00,,0823.1,5.00,0.00,21.7,20.8,00.0,30.9,23.3,05.2,0000.0,0008.22,0005.88,0005.56
2022-03-10 17:27:00,,0823.1,5.01,0.00,21.7,20.8,00.0,30.8,23.3,05.3,0000.0,0008.16,0005.88,0005.57
2022-03-10 17:28:00,,0823.2,5.01,0.00,21.7,20.8,00.0,30.8,23.3,05.4,0000.0,0008.06,0005.87,0005.58
2022-03-10 17:29:00,,0823.2,5.01,0.00,21.7,20.8,00.0,30.8,23.3,05.3,0000.0,0008.06,0005.89,0005.60
2022-03-10 17:30:00,,0823.2,4.99,0.00,21.7,20.9,00.0,30.8,23.3,05.4,0000.0,0008.00,0005.88,0005.60
2022-03-10 17:31:00,,0823.3,4.99,0.00,21.7,20.9,00.0,30.8,23.4,05.4,0000.0,0008.03,0005.88,0005.60
2022-03-10 17:32:00,,0823.2,5.00,0.00,21.7,21.0,00.0,30.8,23.4,05.3,0000.0,0008.09,0005.90,0005.60
2022-03-10 17:33:00,,0823.1,5.00,0.00,21.7,21.0,00.0,30.7,23.4,05.2,0000.0,0008.19,0005.94,0005.61
2022-03-10 17:34:00,,0823.1,5.00,0.00,21.7,21.1,00.0,30.7,23.4,05.3,-000.1,0008.19,0005.94,0005.61
2022-03-10 17:35:00,,0823.2,5.01,0.00,21.8,22.0,00.0,30.8,23.7,05.3,-000.0,0008.12,0005.91,0005.60
2022-03-10 17:36:00,,0823.2,5.00,0.00,22.0,23.1,00.0,30.8,24.0,05.2,0000.0,0008.02,0005.88,0005.59
2022-03-10 17:37:00,,0823.2,4.99,0.00,22.2,23.2,00.0,30.9,24.2,05.2,0000.0,0007.95,0005.85,0005.60
2022-03-10 17:38:00,,0823.2,5.01,0.00,22.2,23.0,00.0,30.9,24.2,05.1,0000.0,0007.98,0005.86,0005.61
2022-03-10 17:39:00,,0823.1,5.00,0.00,22.2,22.7,00.0,31.0,24.2,05.1,0000.0,0008.03,0005.89,0005.62
2022-03-10 17:40:00,,0823.1,4.99,0.00,22.3,22.5,00.0,31.0,24.2,05.1,0000.0,0008.32,0005.91,0005.62
2022-03-10 17:41:00,,0823.1,5.00,0.00,22.3,22.4,00.0,31.0,24.2,05.1,0000.0,0008.37,0005.93,0005.63
2022-03-10 17:42:00,,0823.1,4.99,0.00,22.3,22.2,00.0,31.0,24.1,05.1,0000.0,0008.38,0005.94,0005.64
2022-03-10 17:43:00,,0823.1,5.00,0.00,22.3,22.0,00.0,31.1,24.1,05.2,0000.0,0008.30,0005.91,0005.63
2022-03-10 17:44:00,,0823.1,5.00,0.00,22.3,21.9,00.0,31.1,24.0,05.2,0000.0,0008.40,0005.85,0005.62
2022-03-10 17:45:00,,0823.2,5.00,0.00,22.2,21.8,00.0,31.1,24.0,05.1,0000.0,0008.55,0005.84,0005.61
2022-03-10 17:46:00,,0823.2,5.00,0.00,22.2,21.7,00.0,31.1,24.0,05.1,0000.0,0008.63,0005.86,0005.62
2022-03-10 17:47:00,,0823.3,5.01,0.00,22.2,21.7,00.0,31.1,24.0,05.0,0000.0,0008.72,0005.89,0005.63
2022-03-10 17:48:00,,0823.2,5.00,0.00,22.2,21.7,00.0,31.1,24.0,05.2,0000.0,0008.73,0005.89,0005.62
2022-03-10 17:49:00,,0823.1,5.01,0.00,22.2,21.7,00.0,31.1,24.0,05.4,0000.0,0008.67,0005.87,0005.61
2022-03-10 17:50:00,,0823.1,5.02,0.00,22.2,21.6,00.0,31.1,24.0,05.3,0000.0,0008.78,0005.86,0005.60
2022-03-10 17:51:00,,0823.1,4.99,0.00,22.2,21.6,00.0,31.1,24.0,05.2,0000.0,0008.56,0005.83,0005.60
2022-03-10 17:52:00,,0823.1,5.00,0.00,22.2,21.6,00.0,31.1,24.0,05.4,0000.0,0008.55,0005.82,0005.60
2022-03-10 17:53:00,,0823.2,5.00,0.00,22.2,21.6,00.0,31.1,24.0,05.5,0000.0,0008.49,0005.81,0005.60
2022-03-10 17:54:00,,0823.2,5.00,0.00,22.2,21.6,00.0,31.1,24.0,05.4,0000.0,0008.52,0005.83,0005.60
2022-03-10 17:55:00,,0823.1,5.00,0.00,22.2,21.6,00.0,31.1,24.0,05.4,0000.0,0008.43,0005.86,0005.63
2022-03-10 17:56:00,,0823.1,5.00,0.00,22.2,21.5,00.0,31.1,23.9,05.3,0000.0,0008.24,0005.89,0005.64
2022-03-10 17:57:00,,0823.1,5.00,0.00,22.2,21.5,00.0,31.1,23.9,05.3,0000.0,0008.30,0005.92,0005.65
2022-03-10 17:58:00,,0823.1,5.00,0.00,22.2,21.5,00.0,31.1,24.0,05.3,0000.0,0008.58,0005.93,0005.66
2022-03-10 17:59:00,,0823.1,5.02,0.00,22.2,21.6,00.0,31.1,24.0,05.3,0000.0,0008.58,0005.94,0005.67
